Showing default

ORBCOMM FM 113, 41185

Orbit data source: Space-Track

ORBCOMM FM 113, 41185 is a payload satellite owned by Orbcomm (US) in LEO that was launched on Tue, 22 Dec 2015 UTC via an FALCON 9 launch vehicle from the Air Force Eastern Test Range (AFETR). Payload-class satellites include a variety of spacecraft equipped with specific instruments for various scientific and technological missions. These include communications satellites like Starlink; space stations such as the ISS; scientific satellites like the Hubble; Earth observation satellites from companies like Planet Labs, Umbra, and HawkEye 360; GPS; miniature CubeSats for education and research; and military/defense satellites.

Loading next visibility...
Identifier
41185, 2015-081G
Orbit
LEO
Country
Flag of USUS / ORB
Related business
Manufacturer
SNC Louisville
Mission
Partially operational Commercial Communications
Bus & Motor
SN-100A, Unknown motor
Mass
172 kg wet, 158 kg dry
Launch date (UTC)
2015-12-22 (11 years ago)
Launch vehicle
FALCON 9
Launch site
Air Force Eastern Test Range (AFETR)
Object type
Payload
Rocket body
Debris
Shape & HBR
Box + 1 Pan + 1 Ant, 5.3 m
Radar Cross Section
2.222 m², Large (>1 m²)

Expand to show TLE details & history
Last TLE update: 1 day ago

TLE from 1 day ago
0 ORBCOMM FM 113
1 41185U 15081G   26237.49518211  .00000208  00000-0  80204-4 0  9993
2 41185  47.0011 302.9032 0001848 200.3727 159.7085 14.58915870569053
Epoch: 2026-08-25T11:53Z
TLE epoch observation values (Epoch: 2026-08-25T11:53:03.734Z)
Latitude
-0.00004°
Longitude
150.8759°
Altitude
698.118 km
Speed
7.508 km/s
True Right ascension
20h 11m 36s
True Declination
0° 00' 00"
Sunlit
Object was in full shadow at epoch
Visualization orbit readout
Latitude
Unknown
Longitude
Unknown
Altitude
Unknown
Speed
Unknown
Apparent Right ascension
Unknown
Apparent Declination
Unknown
Sunlit
N/A
Visualization observer readout
Local Sidereal Time
09:52:35
Azimuth
Unknown
Elevation
Unknown
Doppler factor
Unknown
Orbital elements
Apogee altitude
699.219 km
Perigee altitude
696.604 km
Semi-major axis
7,076.049 km
Eccentricity
0.00018
Inclination
47.0011°
RAAN
302.9032°
Arg. of periapsis
200.3727°
True anomaly
159.71584°
Mean anomaly
159.7085°
Eccentric anomaly
159.71217°
Mean motion
3.64634 °/min
Orbital period
98.73 mins
BSTAR
0.000080204
Loading maneuver chart data...
Computing Atmospheric mass density...
Loading historical data...
Loading historical data...
Loading historical data...
Loading historical data...
Loading historical data...
Loading historical data...
Loading historical data...

Documentation

Showing up to 5 results
|